Regional Weather Roundup
Issued by NWS

Home | Current Version | Previous Version | Graphics & Text | Print | Product List | Glossary On
Versions: 1 2 3 4 5 6 7 8 9 10 11 12 13 14 15 16 17 18 19 20 21 22 23 24 25 26 27 28 29 30 31 32 33 34 35 36 37 38 39 40 41 42 43 44 45 46 47 48 49 50
000
ASUS43 KDMX 200201
RWRIA

WEATHER ROUNDUP FOR IOWA
NATIONAL WEATHER SERVICE DES MOINES IA
900 PM CDT THU APR 19 2018

NOTE: "FAIR" INDICATES FEW OR NO CLOUDS BELOW 12,000 FEET WITH NO
SIGNIFICANT WEATHER AND/OR OBSTRUCTIONS TO VISIBILITY.

* - THESE STATIONS ARE NOT NWS STATIONS...THUS NOT UNDER NWS
QUALITY CONTROL.  THEY ALSO DO NOT REPORT WEATHER SUCH
AS PRECIPITATION OR FOG.

IAZ001>003-012>014-020>022-031>034-043>046-200300-
   NORTHWEST IOWA

CITY           SKY/WX    TMP DP  RH WIND       PRES   REMARKS
CARROLL *      PTCLDY    41  32  70 NE9       30.42S
CHEROKEE *     PTCLDY    33  24  69 NE3       30.43F
DENISON *      PTCLDY    43  30  61 E12       30.42R
LE MARS *      PTCLDY    36  23  60 NE8       30.42S WCI  29
ORANGE CITY *  PTCLDY    34  28  80 E7        30.42F WCI  28
SHELDON *      CLEAR     34  30  86 E8        30.42S WCI  27
SIOUX CITY     PTCLDY    39  28  64 E9        30.40S WCI  33
SPENCER        CLOUDY    33  23  66 E3        30.44S
STORM LAKE *   CLOUDY    32  23  69 E9        30.43R WCI  24
$$

IAZ055>058-069>071-079>083-090>094-200300-
   SOUTHWEST IOWA

CITY           SKY/WX    TMP DP  RH WIND       PRES   REMARKS
ATLANTIC *     CLEAR     46  27  46 E7        30.39S
AUDUBON *      CLOUDY    39  28  65 NE5       30.42R
CLARINDA *     CLOUDY    50  27  40 E5        30.40S
COUNCIL BLFS * PTCLDY    48  28  46 E9        30.37S
CRESTON *      CLEAR     41  27  56 E9        30.40F
HARLAN  *      PTCLDY    45  30  57 E10       30.43R
LAMONI         CLEAR     47  26  44 NE6       30.39F
RED OAK *      PTCLDY    45  27  49 E7        30.38S
SHENANDOAH *   CLOUDY    46  28  49 E6        30.38R
$$

IAZ047>049-059>061-072>074-084-200300-
   CENTRAL IOWA

CITY           SKY/WX    TMP DP  RH WIND       PRES   REMARKS
AMES           CLEAR     40  28  62 NE6       30.44F
ANKENY *       CLEAR     41  28  60 NE8       30.45S
BOONE *        CLEAR     37  30  75 NE9       30.43S WCI  31
CHARITON *     CLEAR     45  27  49 NE6       30.41S
DES MOINES     PTCLDY    47  26  44 NE8       30.43S
GRINNELL*      CLEAR     40  27  59 NE8       30.45S WCI  35
KNOXVILLE *    CLEAR     45  25  45 NE7       30.41F
MARSHALLTOWN   CLEAR     36  29  75 N9        30.44F WCI  29
NEWTON *       CLEAR     41  27  56 NE8       30.44S
PELLA *        CLEAR     43  27  52 NE5       30.44S
$$

IAZ004>006-015-016-023>025-035-036-200300-
   NORTH CENTRAL IOWA

CITY           SKY/WX    TMP DP  RH WIND       PRES   REMARKS
ALGONA *       CLOUDY    32  21  64 NE3       30.45F
CLARION *      CLEAR     32  25  74 E3        30.46R
ESTHERVILLE    CLOUDY    31  21  66 CALM      30.44F
FORT DODGE *   CLEAR     36  27  69 NE5       30.45F WCI  32
MASON CITY     CLOUDY    30  22  72 CALM      30.46F
FOREST CITY *  FAIR      30  27  86 CALM      30.45S
IOWA FALLS *   FAIR      38  29  70 CALM      30.46F
$$

IAZ007>011-017>019-026>030-037>042-050>054-066-200300-
   NORTHEAST IOWA

CITY           SKY/WX    TMP DP  RH WIND       PRES   REMARKS
CEDAR RAPIDS   FAIR      42  23  46 NE5       30.44R
CHARLES CITY * FAIR      36  25  64 NW3       30.46S
CLINTON *      FAIR      39  29  67 N8        30.45S WCI  33
DECORAH *      FAIR      41  19  42 CALM      30.44S
DUBUQUE        FAIR      35  25  66 NW3       30.44S
MONTICELLO *   FAIR      41  27  56 CALM      30.45R
OELWEIN *      FAIR      37  28  70 N6        30.45F WCI  33
WATERLOO       FAIR      30  24  78 CALM      30.46S
$$

IAZ064-065-067-068-078-200300-
   EAST CENTRAL IOWA

CITY           SKY/WX    TMP DP  RH WIND       PRES   REMARKS
DAVENPORT      FAIR      39  26  59 NE7       30.46S WCI  34
IOWA CITY      FAIR      45  23  42 N7        30.46R
MUSCATINE *    FAIR      41  25  52 CALM      30.45R
QUAD CITIES    FAIR      47  25  42 NE5       30.43S
$$

IAZ062-063-075>077-085>089-095>099-200300-
   SOUTHEAST IOWA

CITY           SKY/WX    TMP DP  RH WIND       PRES   REMARKS
BURLINGTON     CLEAR     44  24  45 NE6       30.43R
FAIRFIELD *    CLEAR     41  25  52 NE8       30.43R
FORT MADISON * CLEAR     46  27  46 CALM      30.44R
KEOKUK *       CLEAR     48  23  37 NE3       30.42R
OSKALOOSA *    FAIR      40  25  54 NE8       30.44R WCI  35
CENTERVILLE *    N/A     45  25  45 CALM      30.43R
OTTUMWA        CLEAR     45  24  43 NE7       30.43R
WASHINGTON *   CLEAR     43  27  52 N7        30.45R
$$

ABBREVIATIONS USED IN REMARKS
   TC - TEMPERATURES IN CELSIUS
  WCI - WIND CHILL INDEX
   HX - HEAT INDEX
  VSB - VISIBILITY
$$




USA.gov is the U.S. government's official web portal to all federal, state and local government web resources and services.